Retour au catalogue

DELTA 1 DEB

ActifUNKNOWN
NORAD 20349·DEBRIS·🇺🇸 United States

Lancé Jul 29, 1976 depuis Vandenberg Space Force Base

Loading…

Prochains Passages (prochaines 24 heures)

TLE

FraisSource: Space-Track

Époque: Sep 14, 2026, 11:41 UTC

1 20349U 76077FR  26257.48699269 -.00000459  00000-0 -74505-2 0  9993
2 20349 102.5799 351.7187 0625003  49.8871 324.9709 11.33784473565908

Suivez DELTA 1 DEB en temps réel avec AllMySat

Download on the App Store